Overview Statistics Trail Chart Weather Telemetry Raw packets
 

This is the latest recevied weather packets stored in our database for station/object W8RSN-13. If no packets are shown the sender has not sent any weather packets the latest 10 day(s).

<< 98 99 100 101 102 103 104 >>
Time Temp. Humidity Pressure Rain* Wind** Luminosity Snow
1787951373 37.78° C 30% 1013.1 hPa - - - -
1787951072 37.78° C 30% 1013.3 hPa - - - -
1787950771 37.22° C 31% 1013.3 hPa - - - -
1787950470 37.22° C 31% 1013.3 hPa - - - -
1787950169 37.22° C 30% 1013.4 hPa - - - -
1787949868 37.22° C 31% 1013.5 hPa - - - -
1787949568 36.67° C 31% 1013.7 hPa - - - -
1787949267 37.22° C 30% 1013.5 hPa - - - -
1787948966 36.67° C 29% 1013.4 hPa - - - -
1787948665 36.67° C 32% 1013.7 hPa - - - -
1787948364 36.67° C 35% 1013.9 hPa - - - -
1787948063 36.11° C 38% 1013.8 hPa - - - -
1787947762 36.11° C 37% 1013.9 hPa - - - -
1787947461 36.11° C 37% 1014 hPa - - - -
1787947160 36.11° C 38% 1014.1 hPa - - - -
1787946860 36.11° C 38% 1014.1 hPa - - - -
1787946559 36.11° C 36% 1014.2 hPa - - - -
1787946258 36.11° C 36% 1014.3 hPa - - - -
1787945957 36.11° C 36% 1014.3 hPa - - - -
1787945656 36.11° C 37% 1014.5 hPa - - - -
1787945375 36.11° C 37% 1014.3 hPa - - - -
1787945074 35.56° C 39% 1014.5 hPa - - - -
1787944773 36.11° C 38% 1014.4 hPa - - - -
1787944473 36.11° C 36% 1014.6 hPa - - - -
1787944172 35.56° C 36% 1014.7 hPa - - - -

* Rain since midnight (hover to see other rain measurements)
** Current wind speed in m/s (hover to see current wind gust speed)